STARLINK-32536, 61925

Orbit data source: Space-Track

STARLINK-32536, 61925 is a payload satellite owned by SpaceX/Seattle (US) in LEO that was launched on Mon, 11 Nov 2024 UTC via an FALCON 9 launch vehicle from the Air Force Eastern Test Range (AFETR). Payload-class satellites include a variety of spacecraft equipped with specific instruments for various scientific and technological missions. These include communications satellites like Starlink; space stations such as the ISS; scientific satellites like the Hubble; Earth observation satellites from companies like Planet Labs, Umbra, and HawkEye 360; GPS; miniature CubeSats for education and research; and military/defense satellites.

Loading next visibility...
Identifier
61925, 2024-207P
Orbit
LEO
Country
Flag of USUS
Related business
Manufacturer
SpaceX/Seattle
Mission
Operational Commercial Communications
Bus & Motor
STARLINK V2M, Unknown motor
Mass
730 kg wet, ~700 kg dry
Launch date (UTC)
2024-11-11 (2 years ago)
Launch vehicle
FALCON 9
Launch site
Air Force Eastern Test Range (AFETR)
Object type
Payload
Rocket body
Debris
Shape & HBR
Box + 2 Pan, 17.7 m
Radar Cross Section
33.884 m², Large (>1 m²)

Expand to show TLE details & history
Last TLE update: 1 day ago

TLE from 1 day ago
0 STARLINK-32536
1 61925U 24207P   26206.11512686  .00027838  00000-0  10165-2 0  9997
2 61925  43.0021 229.5997 0001861 273.4501  86.6138 15.27606064 95694
Epoch: 2026-07-25T02:45Z
TLE epoch observation values (Epoch: 2026-07-25T02:45:46.960Z)
Latitude
-0.00001°
Longitude
-114.67802°
Altitude
482.672 km
Speed
7.626 km/s
True Right ascension
15h 18m 23s
True Declination
0° 00' 00"
Sunlit
Object was in daylight at epoch
Visualization orbit readout
Latitude
Unknown
Longitude
Unknown
Altitude
Unknown
Speed
Unknown
Apparent Right ascension
Unknown
Apparent Declination
Unknown
Sunlit
N/A
Visualization observer readout
Local Sidereal Time
22:16:30
Azimuth
Unknown
Elevation
Unknown
Doppler factor
Unknown
Orbital elements
Apogee altitude
486.193 km
Perigee altitude
483.639 km
Semi-major axis
6,863.053 km
Eccentricity
0.00019
Inclination
43.0021°
RAAN
229.5997°
Arg. of periapsis
273.4501°
True anomaly
86.63509°
Mean anomaly
86.6138°
Eccentric anomaly
86.62444°
Mean motion
3.8174 °/min
Orbital period
94.31 mins
BSTAR
0.0010165
Loading maneuver chart data...
Computing Atmospheric mass density...
Loading historical data...
Loading historical data...
Loading historical data...
Loading historical data...
Loading historical data...
Loading historical data...
Loading historical data...

Documentation

Showing up to 5 results
|